Time,TemperatureF,DewpointF,PressureIn,WindDirection,WindDirectionDegrees,WindSpeedMPH,WindSpeedGustMPH,Humidity,HourlyPrecipIn,Conditions,Clouds,dailyrainin,SolarRadiationWatts/m^2,SoftwareType,DateUTC
2013-02-24 00:11:00,14.0,7.0,-100.00,SSW,209,11.0,16.0,72,0.00,,,0.01,0.000000,,2013-02-24 07:11:00,
2013-02-24 00:21:00,14.0,7.0,-100.00,SSW,209,11.0,16.0,72,0.00,,,0.01,0.000000,,2013-02-24 07:21:00,
2013-02-24 00:31:00,14.0,7.0,-100.00,SSW,209,11.0,16.0,72,0.00,,,0.01,0.000000,,2013-02-24 07:31:00,
2013-02-24 00:41:00,14.0,7.0,-100.00,SSW,209,11.0,16.0,72,0.00,,,0.01,0.000000,,2013-02-24 07:41:00,
2013-02-24 01:11:00,14.0,5.0,-100.00,SW,223,10.0,20.0,67,0.00,,,0.01,0.000000,,2013-02-24 08:11:00,
2013-02-24 01:22:00,14.0,5.0,-100.00,SW,223,10.0,20.0,67,0.00,,,0.01,0.000000,,2013-02-24 08:22:00,
2013-02-24 01:31:00,14.0,5.0,-100.00,SW,223,10.0,20.0,67,0.00,,,0.01,0.000000,,2013-02-24 08:31:00,
2013-02-24 01:41:00,14.0,5.0,-100.00,SW,223,10.0,20.0,67,0.00,,,0.01,0.000000,,2013-02-24 08:41:00,
2013-02-24 02:11:00,13.0,4.0,-100.00,SW,214,10.0,19.0,67,0.00,,,0.01,0.000000,,2013-02-24 09:11:00,
2013-02-24 02:21:00,13.0,4.0,-100.00,SW,214,10.0,19.0,67,0.00,,,0.01,0.000000,,2013-02-24 09:21:00,
2013-02-24 02:31:00,13.0,4.0,-100.00,SW,214,10.0,19.0,67,0.00,,,0.01,0.000000,,2013-02-24 09:31:00,
2013-02-24 02:41:00,13.0,4.0,-100.00,SW,214,10.0,19.0,67,0.00,,,0.01,0.000000,,2013-02-24 09:41:00,
2013-02-24 03:11:00,14.0,5.0,-100.00,SW,219,11.0,16.0,67,0.00,,,0.01,0.000000,,2013-02-24 10:11:00,
2013-02-24 03:21:00,14.0,5.0,-100.00,SW,219,11.0,16.0,67,0.00,,,0.01,0.000000,,2013-02-24 10:21:00,
2013-02-24 03:31:00,14.0,5.0,-100.00,SW,219,11.0,16.0,67,0.00,,,0.01,0.000000,,2013-02-24 10:31:00,
2013-02-24 03:41:00,14.0,5.0,-100.00,SW,219,11.0,16.0,67,0.00,,,0.01,0.000000,,2013-02-24 10:41:00,
2013-02-24 04:11:00,13.0,5.0,-100.00,SW,231,8.0,19.0,69,0.00,,,0.01,0.000000,,2013-02-24 11:11:00,
2013-02-24 04:21:00,13.0,5.0,-100.00,SW,231,8.0,19.0,69,0.00,,,0.01,0.000000,,2013-02-24 11:21:00,
2013-02-24 04:32:00,13.0,5.0,-100.00,SW,231,8.0,19.0,69,0.00,,,0.01,0.000000,,2013-02-24 11:32:00,
2013-02-24 04:41:00,13.0,5.0,-100.00,SW,231,8.0,19.0,69,0.00,,,0.01,0.000000,,2013-02-24 11:41:00,
2013-02-24 05:11:00,14.0,5.0,-100.00,SW,230,8.0,12.0,68,0.00,,,0.01,0.000000,,2013-02-24 12:11:00,
2013-02-24 05:21:00,14.0,5.0,-100.00,SW,230,8.0,12.0,68,0.00,,,0.01,0.000000,,2013-02-24 12:21:00,
2013-02-24 05:32:00,14.0,5.0,-100.00,SW,230,8.0,12.0,68,0.00,,,0.01,0.000000,,2013-02-24 12:32:00,
2013-02-24 05:45:00,14.0,5.0,-100.00,SW,230,8.0,12.0,68,0.00,,,0.01,0.000000,,2013-02-24 12:45:00,
2013-02-24 06:15:00,14.0,7.0,-100.00,SW,235,5.0,11.0,72,0.00,,,0.01,0.000000,,2013-02-24 13:15:00,
2013-02-24 06:24:00,14.0,7.0,-100.00,SW,235,5.0,11.0,72,0.00,,,0.01,0.000000,,2013-02-24 13:24:00,
2013-02-24 06:33:00,14.0,7.0,-100.00,SW,235,5.0,11.0,72,0.00,,,0.01,0.000000,,2013-02-24 13:33:00,
2013-02-24 07:13:00,13.0,7.0,-100.00,West,270,1.0,9.0,77,0.00,,,0.01,0.000000,,2013-02-24 14:13:00,
2013-02-24 07:23:00,13.0,7.0,-100.00,West,270,1.0,9.0,77,0.00,,,0.01,0.000000,,2013-02-24 14:23:00,
2013-02-24 07:32:00,13.0,7.0,-100.00,West,270,1.0,9.0,77,0.00,,,0.01,0.000000,,2013-02-24 14:32:00,
2013-02-24 07:43:00,13.0,7.0,-100.00,West,270,1.0,9.0,77,0.00,,,0.01,0.000000,,2013-02-24 14:43:00,
2013-02-24 08:12:00,14.0,8.0,-100.00,SE,136,1.0,6.0,76,0.00,,,0.01,31.000000,,2013-02-24 15:12:00,
2013-02-24 08:22:00,14.0,8.0,-100.00,SE,136,1.0,6.0,76,0.00,,,0.01,31.000000,,2013-02-24 15:22:00,
2013-02-24 08:31:00,14.0,8.0,-100.00,SE,136,1.0,6.0,76,0.00,,,0.01,31.000000,,2013-02-24 15:31:00,
2013-02-24 08:41:00,14.0,8.0,-100.00,SE,136,1.0,6.0,76,0.00,,,0.01,31.000000,,2013-02-24 15:41:00,
2013-02-24 09:11:00,19.0,12.0,-100.00,NW,316,1.0,3.0,75,0.00,,,0.01,117.000000,,2013-02-24 16:11:00,
2013-02-24 09:21:00,19.0,12.0,-100.00,NW,316,1.0,3.0,75,0.00,,,0.01,117.000000,,2013-02-24 16:21:00,
2013-02-24 09:31:00,19.0,12.0,-100.00,NW,316,1.0,3.0,75,0.00,,,0.01,117.000000,,2013-02-24 16:31:00,
2013-02-24 09:41:00,19.0,12.0,-100.00,NW,316,1.0,3.0,75,0.00,,,0.01,117.000000,,2013-02-24 16:41:00,
2013-02-24 10:11:00,21.0,14.0,-100.00,NNW,344,5.0,8.0,74,0.00,,,0.01,199.000000,,2013-02-24 17:11:00,
2013-02-24 10:21:00,21.0,14.0,-100.00,NNW,344,5.0,8.0,74,0.00,,,0.01,199.000000,,2013-02-24 17:21:00,
2013-02-24 10:32:00,21.0,14.0,-100.00,NNW,344,5.0,8.0,74,0.00,,,0.01,199.000000,,2013-02-24 17:32:00,
2013-02-24 10:41:00,21.0,14.0,-100.00,NNW,344,5.0,8.0,74,0.00,,,0.01,199.000000,,2013-02-24 17:41:00,
2013-02-24 11:11:00,23.0,14.0,-100.00,NNW,336,5.0,8.0,68,0.00,,,0.01,299.000000,,2013-02-24 18:11:00,
2013-02-24 11:22:00,23.0,14.0,-100.00,NNW,336,5.0,8.0,68,0.00,,,0.01,299.000000,,2013-02-24 18:22:00,
2013-02-24 11:31:00,23.0,14.0,-100.00,NNW,336,5.0,8.0,68,0.00,,,0.01,299.000000,,2013-02-24 18:31:00,
2013-02-24 11:41:00,23.0,14.0,-100.00,NNW,336,5.0,8.0,68,0.00,,,0.01,299.000000,,2013-02-24 18:41:00,
2013-02-24 12:11:00,26.0,17.0,-100.00,North,357,5.0,11.0,67,0.00,,,0.01,435.000000,,2013-02-24 19:11:00,
2013-02-24 12:22:00,26.0,17.0,-100.00,North,357,5.0,11.0,67,0.00,,,0.01,435.000000,,2013-02-24 19:22:00,
2013-02-24 12:32:00,26.0,17.0,-100.00,North,357,5.0,11.0,67,0.00,,,0.01,435.000000,,2013-02-24 19:32:00,
2013-02-24 12:41:00,26.0,17.0,-100.00,North,357,5.0,11.0,67,0.00,,,0.01,435.000000,,2013-02-24 19:41:00,
2013-02-24 13:11:00,27.0,17.0,-100.00,North,6,8.0,15.0,65,0.09,,,0.10,532.000000,,2013-02-24 20:11:00,
2013-02-24 13:21:00,27.0,17.0,-100.00,North,6,8.0,15.0,65,0.09,,,0.10,532.000000,,2013-02-24 20:21:00,
2013-02-24 13:31:00,27.0,17.0,-100.00,North,6,8.0,15.0,65,0.09,,,0.10,532.000000,,2013-02-24 20:31:00,
2013-02-24 13:41:00,27.0,17.0,-100.00,North,6,8.0,15.0,65,0.09,,,0.10,532.000000,,2013-02-24 20:41:00,
2013-02-24 14:21:00,25.0,17.0,-100.00,North,4,7.0,14.0,71,0.00,,,0.10,377.000000,,2013-02-24 21:21:00,
2013-02-24 14:32:00,25.0,17.0,-100.00,North,4,7.0,14.0,71,0.00,,,0.10,377.000000,,2013-02-24 21:32:00,
2013-02-24 14:41:00,25.0,17.0,-100.00,North,4,7.0,14.0,71,0.00,,,0.10,377.000000,,2013-02-24 21:41:00,
2013-02-24 15:11:00,25.0,16.0,-100.00,North,7,7.0,14.0,68,0.01,,,0.11,350.000000,,2013-02-24 22:11:00,
2013-02-24 15:21:00,25.0,16.0,-100.00,North,7,7.0,14.0,68,0.01,,,0.11,350.000000,,2013-02-24 22:21:00,
2013-02-24 15:31:00,25.0,16.0,-100.00,North,7,7.0,14.0,68,0.01,,,0.11,350.000000,,2013-02-24 22:31:00,
2013-02-24 15:41:00,25.0,16.0,-100.00,North,7,7.0,14.0,68,0.01,,,0.11,350.000000,,2013-02-24 22:41:00,
2013-02-24 16:11:00,25.0,16.0,-100.00,North,357,8.0,14.0,68,0.00,,,0.11,274.000000,,2013-02-24 23:11:00,
2013-02-24 16:21:00,25.0,16.0,-100.00,North,357,8.0,14.0,68,0.00,,,0.11,274.000000,,2013-02-24 23:21:00,
2013-02-24 16:31:00,25.0,16.0,-100.00,North,357,8.0,14.0,68,0.00,,,0.11,274.000000,,2013-02-24 23:31:00,
2013-02-24 16:41:00,25.0,16.0,-100.00,North,357,8.0,14.0,68,0.00,,,0.11,274.000000,,2013-02-24 23:41:00,
2013-02-24 17:11:00,25.0,15.0,-100.00,North,6,6.0,14.0,65,0.00,,,0.11,180.000000,,2013-02-25 00:11:00,
2013-02-24 17:21:00,25.0,15.0,-100.00,North,6,6.0,14.0,65,0.00,,,0.11,180.000000,,2013-02-25 00:21:00,
2013-02-24 17:31:00,25.0,15.0,-100.00,North,6,6.0,14.0,65,0.00,,,0.11,180.000000,,2013-02-25 00:31:00,
2013-02-24 17:41:00,25.0,15.0,-100.00,North,6,6.0,14.0,65,0.00,,,0.11,180.000000,,2013-02-25 00:41:00,
2013-02-24 18:11:00,23.0,13.0,-100.00,North,3,6.0,11.0,66,0.00,,,0.11,119.000000,,2013-02-25 01:11:00,
2013-02-24 18:21:00,23.0,13.0,-100.00,North,3,6.0,11.0,66,0.00,,,0.11,119.000000,,2013-02-25 01:21:00,
2013-02-24 18:31:00,23.0,13.0,-100.00,North,3,6.0,11.0,66,0.00,,,0.11,119.000000,,2013-02-25 01:31:00,
2013-02-24 18:42:00,23.0,13.0,-100.00,North,3,6.0,11.0,66,0.00,,,0.11,119.000000,,2013-02-25 01:42:00,
2013-02-24 19:11:00,21.0,12.0,-100.00,North,9,5.0,13.0,69,0.00,,,0.11,7.000000,,2013-02-25 02:11:00,
2013-02-24 19:21:00,21.0,12.0,-100.00,North,9,5.0,13.0,69,0.00,,,0.11,7.000000,,2013-02-25 02:21:00,
2013-02-24 19:31:00,21.0,12.0,-100.00,North,9,5.0,13.0,69,0.00,,,0.11,7.000000,,2013-02-25 02:31:00,
2013-02-24 19:41:00,21.0,12.0,-100.00,North,9,5.0,13.0,69,0.00,,,0.11,7.000000,,2013-02-25 02:41:00,
2013-02-24 20:11:00,17.0,10.0,-100.00,NNW,337,0.0,6.0,75,0.00,,,0.11,0.000000,,2013-02-25 03:11:00,
2013-02-24 20:21:00,17.0,10.0,-100.00,NNW,337,0.0,6.0,75,0.00,,,0.11,0.000000,,2013-02-25 03:21:00,
2013-02-24 20:31:00,17.0,10.0,-100.00,NNW,337,0.0,6.0,75,0.00,,,0.11,0.000000,,2013-02-25 03:31:00,
2013-02-24 20:41:00,17.0,10.0,-100.00,NNW,337,0.0,6.0,75,0.00,,,0.11,0.000000,,2013-02-25 03:41:00,
2013-02-24 21:11:00,17.0,10.0,-100.00,ENE,69,2.0,8.0,72,0.00,,,0.10,0.000000,,2013-02-25 04:11:00,
2013-02-24 21:21:00,17.0,10.0,-100.00,ENE,69,2.0,8.0,72,0.00,,,0.10,0.000000,,2013-02-25 04:21:00,
2013-02-24 21:31:00,17.0,10.0,-100.00,ENE,69,2.0,8.0,72,0.00,,,0.10,0.000000,,2013-02-25 04:31:00,
2013-02-24 21:41:00,17.0,10.0,-100.00,ENE,69,2.0,8.0,72,0.00,,,0.10,0.000000,,2013-02-25 04:41:00,
2013-02-24 22:11:00,14.0,8.0,-100.00,East,96,3.0,5.0,77,0.00,,,0.10,0.000000,,2013-02-25 05:11:00,
2013-02-24 22:22:00,14.0,8.0,-100.00,East,96,3.0,5.0,77,0.00,,,0.10,0.000000,,2013-02-25 05:22:00,
2013-02-24 22:31:00,14.0,8.0,-100.00,East,96,3.0,5.0,77,0.00,,,0.10,0.000000,,2013-02-25 05:31:00,
2013-02-24 22:41:00,14.0,8.0,-100.00,East,96,3.0,5.0,77,0.00,,,0.10,0.000000,,2013-02-25 05:41:00,
2013-02-24 23:11:00,11.0,6.0,-100.00,SSE,149,5.0,7.0,79,0.00,,,0.10,0.000000,,2013-02-25 06:11:00,
2013-02-24 23:21:00,11.0,6.0,-100.00,SSE,149,5.0,7.0,79,0.00,,,0.10,0.000000,,2013-02-25 06:21:00,